Location: Marcé
(47.5801°N, 0.3280°W)
Time: 20:57:55
(UTC+01:00)

Altair - Pass Details

Date: 10 December 2021
Orbit: 1501 x 1683 km, 47.2° (Epoch: 20 January)

Event Time Altitude Azimuth Distance (km) Brightness Sun altitude
Rises 22:03:56 0° 290° (WNW) 4,677 10.7 -48.2°
Reaches altitude 10° 22:07:40 10° 278° (W) 3,674 10.0 -48.8°
Enters shadow 22:12:55 23° 244° (WSW) 2,747 9.0 -49.6°
Maximum altitude 22:14:36 25° 228° (SW) 2,676 - -49.9°
Drops below altitude 10° 22:21:30 10° 178° (S) 3,645 - -50.9°
Sets 22:25:13 0° 166° (SSE) 4,632 - -51.5°
